Вернуться в каталог

SHIYAN 27D

АктивенНаукаSSO
NORAD 63602·PAYLOAD·🇨🇳 China

Запущен Apr 18, 2025 с Taiyuan Satellite Launch Center

Loading…

Ближайшие Пролёты (ближайшие 24 часа)

TLE

СвежийSource: Space-Track

Эпоха: Sep 14, 2026, 13:34 UTC

1 63602U 25078D   26257.56544632 -.00000014  00000-0  42511-4 0  9999
2 63602  99.6970 263.5031 0001030  91.9976 268.1280 13.57245822 69656

Отслеживайте SHIYAN 27D в реальном времени с AllMySat

Download on the App Store